Location: Poughquag
(41.6090°N, 73.6820°W)
Time: 11:12:41
(UTC-04:00)

Tiros 1 despin weight - Pass Details

Date: 05 June 2020
Orbit: 593 x 642 km, 48.2° (Epoch: 07 July)

Event Time Altitude Azimuth Distance (km) Brightness Sun altitude
Rises 07:22:33 0° 188° (S) 2,928 ? 20.1°
Reaches altitude 10° 07:25:52 10° 164° (SSE) 2,021 ? 20.7°
Maximum altitude 07:28:19 14° 132° (SE) 1,756 ? 21.1°
Drops below altitude 10° 07:30:45 10° 100° (E) 2,019 ? 21.6°
Sets 07:34:03 0° 76° (ENE) 2,923 ? 22.2°
